C/2015 X5 ( PanSTARRS )

Japanese version
Home page
Updated on April 13, 2018

---------------------------------------------------------------------

* Profile

Discovery Date December 6, 2015
Magnitude 21.3 mag
Discoverer Pan-STARRS 1 telescope (Haleakala)

* Pictures

* Orbital Elements

Epoch 2018 Jan. 2.0 TT = JDT 2458120.5
T 2017 Dec. 31.03009 TT                                 MPCW
q   6.8017326            (2000.0)            P               Q
z  -0.0004889      Peri.   27.75239     -0.25135916     +0.67029040
 +/-0.0000007      Node   122.31452     +0.66183181     -0.40736092
e   1.0033257      Incl.  124.29091     +0.70625578     +0.62029659
From 167 observations 2015 Dec. 6-2018 Feb. 8, mean residual 0".5.

* Magnitudes Graph

        m1 = 2.3 + 5 log d + 15.0 log r

---------------------------------------------------------------------

The orbital elements are published on M.P.E.C. 2018-D91.
The magnitudes graphs are made with Comet for Windows.

---------------------------------------------------------------------

Copyright(C) Seiichi Yoshida (comet@aerith.net). All rights reserved.